Flag for Germany Weather past 2 weeks in Schleswig, Schleswig-Holstein, Germany

Now
51 °F

Light rain. Overcast.


Feels Like: 50 °F
Forecast: 50 / 57 °F
Wind: 5 mph from South

Location: Schleswig

Current Time: Oct 25, 2014 at 1:54:51 AM

Latest Report: Oct 25, 2014 at 1:00 AM


Visibility: 5 mi

Pressure: 30.00 "Hg

Humidity: 89%

Dew point: 48 °F

Location of SchleswigLocation

Historic Weather in Schleswig — Graph

°F

Schleswig temperature yesterday

Maximum temperature yesterday: 56 °F (at 3:00 PM)
Minimum temperature yesterday: 51 °F (at 11:00 PM)
Average temperature yesterday: 53 °F

Past Weeks' High & Low Weather Summary

 TemperatureHumidityPressure
High64 °F (Oct 11, 3:00 PM)100% (Oct 11, 8:00 AM)30.14 "Hg (Oct 11, 8:00 AM)
Low46 °F (Oct 11, 8:00 AM)61% (Oct 12, 2:00 PM)29.29 "Hg (Oct 21, 7:00 PM)
Average54 °F92%29.83 "Hg
* Reported Oct 10 1:00 AM — Oct 25 1:00 AM, Schleswig, Weather by CustomWeather, © 2014

Note: Actual official high and low records may vary slightly from our data, if they occured in-between our weather recording intervals... More about our weather records

Advertising

Schleswig weather history for previous 24 hours

 ConditionsComfort  
Time TempWeatherWind HumidityBarometerVisibility
1:00 AM
Oct 25
51 °FLight rain. Overcast.5 mph89%30.00 "Hg5 mi
12:00 AM51 °FLight rain. Overcast.5 mph91%30.01 "Hg4 mi
11:00 PM
Oct 24
51 °FLight rain. Overcast.5 mph91%30.02 "Hg4 mi
10:00 PM52 °FDrizzle. Overcast.5 mph81%30.03 "Hg6 mi
9:00 PM52 °FOvercast.5 mph79%30.03 "Hg12 mi
8:00 PM53 °FOvercast.5 mph78%30.03 "Hg16 mi
7:00 PM54 °FOvercast.6 mph77%30.04 "Hg16 mi
6:00 PM54 °FOvercast.6 mph78%30.04 "Hg14 mi
4:00 PM56 °FOvercast.7 mph74%30.06 "Hg9 mi
3:00 PM56 °FOvercast.6 mph73%30.07 "Hg12 mi
2:00 PM55 °FOvercast.7 mph74%30.08 "Hg11 mi
1:00 PM55 °FOvercast.7 mph73%30.09 "Hg9 mi
12:00 PM55 °FOvercast.7 mph75%30.09 "Hg9 mi
10:00 AM53 °FOvercast.6 mph86%30.10 "Hg6 mi
9:00 AM52 °FOvercast.5 mph89%30.09 "Hg5 mi
8:00 AM52 °FFog.5 mph91%30.08 "Hg4 mi
7:00 AM52 °FLow clouds.5 mph92%30.08 "Hg4 mi
6:00 AM52 °FOvercast.5 mph91%30.09 "Hg4 mi
5:00 AM52 °FLow clouds.5 mph91%30.09 "Hg4 mi
4:00 AM52 °FFog.3 mph91%30.10 "Hg4 mi
3:00 AM52 °FFog.5 mph91%30.11 "Hg3 mi
2:00 AM52 °FFog.3 mph93%30.12 "Hg3 mi
1:00 AM52 °FFog.6 mph91%30.12 "Hg3 mi
Weather by CustomWeather, © 2014

See weather overviewHow to use our weather pages